sat.trackr.live / text

‹ back to catalog

TELKOM 3S

NORAD 41944 · 2017-007A

PAYLOAD ACTIVE UNKNOWN

§ Identity

Operator
Country
INDO
Launch date
2017-02-14
Launch site
FRGUI
Launch vehicle
Mass (kg)
RCS (m²)
10.87

Purposes: comms

External: N2YO · Heavens-Above · Gunter

§ Orbital elements

Epoch: 2026-09-20T00:22:31.219968Z

Period
1,436.09 min
Inclination
0.0168°
Eccentricity
0.0002315
Mean motion
1.00272559 rev/d
Perigee alt
35,776.6 km
Apogee alt
35,796.1 km
Semi-major
42,164.5 km
B*
0.0000e+0
RAAN
153.3785°
Arg perigee
21.8900°
Mean anomaly
307.2939°
Rev number
3,509

§ Raw data

TELKOM 3S1 41944U 17007A   26263.01563912 -.00000367  00000+0  00000+0 0  99982 41944   0.0168 153.3785 0002315  21.8900 307.2939  1.00272559 35093

JSON: /api/v1/satellites/41944 · /tle

For live sub-satellite position, see the globe view (requires WebGL).

§ Visibility from observer

Set your observer location to see the next 7 days of passes ≥ 10°. The values pass through the URL so the page stays shareable.

No JS? Fill the form by hand. The geolocation button needs JavaScript.